User: anonymous   Login
Location: Caltech
(34.1382°N, 118.1253°W)
Time: 05:59:01
(UTC-07:00)
Language:

Iridium 94 - Orbit

View from above orbital plane
View from above orbital plane
View from above satellite
View from above satellite

Ground track
Ground track

The orbit data is extracted from the following two-line orbital elements,

1 27374U 02005C   17118.96357792 +.00000056 +00000-0 +12919-4 0  9993
2 27374 086.3928 276.2790 0001775 112.6122 001.7305 14.34213833808867
Epoch (UTC): 28 April 2017 23:07:33
Eccentricity: 0.0001775
inclination: 86.3928°
perigee height: 776 km
apogee height: 779 km
right ascension of ascending node: 276.2790°
argument of perigee: 112.6122°
revolutions per day: 14.34213833
mean anomaly at epoch: 1.7305°
orbit number at epoch: 80886

The dashed part of the orbit path shows where the satellite is in the earth's shadow,  

DLR